CW6668 Weather Reports


time (UTC)temp
C
wind
direction
speed
KPH
gust
KPH
rain 1hr
cm
rain 24hr
cm
rain mn
cm
humidity
%
barometer
mb
20260507154508 13 334 0.0 6.4 0.00 0.03 0.03 52 1012.3
20260507153005 13 346 1.6 11.3 0.00 0.03 0.03 58 1012.4
20260507151501 12 263 3.2 9.7 0.00 0.13 0.03 58 1012.4
20260507150103 12 336 0.0 4.8 0.00 0.13 0.03 62 1012.6
20260507144558 12 96 0.0 9.7 0.00 0.13 0.03 65 1012.7
20260507143058 12 25 3.2 11.3 0.00 0.13 0.03 63 1013.0
20260507141556 12 292 3.2 6.4 0.00 0.30 0.03 67 1013.0
20260507140106 11 292 1.6 12.9 0.00 0.30 0.03 65 1013.3
20260507134552 11 21 0.0 6.4 0.00 0.30 0.03 65 1013.2
20260507133051 11 319 3.2 14.5 0.00 0.30 0.03 68 1013.3
20260507131549 11 265 3.2 9.7 0.00 0.46 0.03 72 1013.2
20260507130047 11 292 0.0 3.2 0.00 0.46 0.03 73 1013.2
20260507124545 11 292 0.0 3.2 0.00 0.46 0.03 69 1013.5
20260507123043 11 292 1.6 4.8 0.00 0.46 0.03 71 1013.2
20260507121541 11 292 0.0 4.8 0.00 0.64 0.03 73 1013.2
20260507120038 11 342 1.6 4.8 0.00 0.64 0.03 75 1013.1
20260507114537 11 306 1.6 6.4 0.00 0.64 0.03 72 1012.9
20260507113040 11 288 0.0 8.0 0.00 0.64 0.03 72 1012.9
20260507111531 11 292 0.0 4.8 0.00 0.64 0.03 75 1012.9
20260507110028 11 292 0.0 6.4 0.00 0.64 0.03 78 1012.8
20260507104527 11 286 0.0 1.6 0.00 0.64 0.03 82 1012.6
20260507103025 11 286 0.0 3.2 0.00 0.64 0.03 81 1012.3
20260507101536 11 286 0.0 1.6 0.00 0.64 0.03 82 1012.2
20260507100030 11 286 0.0 4.8 0.00 0.64 0.03 82 1012.1
20260507094521 11 286 0.0 3.2 0.00 0.64 0.03 81 1012.1
20260507093025 11 286 0.0 4.8 0.00 0.64 0.03 82 1011.9
20260507091538 11 286 0.0 4.8 0.00 0.64 0.03 84 1011.8
20260507090015 11 286 0.0 3.2 0.00 0.64 0.03 84 1011.8
20260507084515 11 286 0.0 4.8 0.00 0.64 0.03 84 1011.8
20260507083017 11 309 4.8 12.9 0.00 0.64 0.03 86 1011.8
20260507081511 11 309 3.2 8.0 0.00 0.64 0.03 87 1011.6
20260507080011 11 317 1.6 4.8 0.00 0.64 0.03 89 1011.1
20260507074512 11 317 0.0 3.2 0.03 0.64 0.03 90 1011.1
20260507073010 11 317 0.0 3.2 0.03 0.64 0.03 89 1010.9
20260507071509 11 317 1.6 8.0 0.03 0.64 0.03 89 1011.1
20260507070140 12 281 1.6 8.0 0.03 0.64 0.03 88 1010.9
20260507064509 12 5 1.6 8.0 0.00 0.61 0.00 87 1011.1
20260507063005 12 309 3.2 11.3 0.00 0.61 0.00 87 1011.2
20260507061510 12 319 1.6 8.0 0.00 0.61 0.00 88 1011.1
20260507060100 12 273 1.6 6.4 0.00 0.61 0.00 89 1011.0
20260507054617 12 268 1.6 4.8 0.00 0.61 0.00 89 1011.1
20260507053057 12 320 3.2 9.7 0.00 0.61 0.00 89 1011.2
20260507051554 12 282 1.6 8.0 0.00 0.61 0.61 88 1011.2
20260507050053 12 282 0.0 4.8 0.00 0.61 0.61 87 1011.3
20260507044551 13 245 4.8 14.5 0.00 0.61 0.61 86 1011.4
20260507043050 13 320 3.2 9.7 0.00 0.61 0.61 84 1010.8
20260507041546 13 322 4.8 20.9 0.00 0.61 0.61 83 1011.2
20260507040048 14 329 4.8 19.3 0.00 0.61 0.61 82 1011.2
20260507034543 15 294 3.2 12.9 0.00 0.61 0.61 81 1010.7
20260507033038 15 310 3.2 12.9 0.00 0.61 0.61 81 1010.7
20260507031537 15 267 3.2 11.3 0.00 0.61 0.61 80 1010.7
20260507030040 15 286 6.4 19.3 0.00 0.61 0.61 80 1010.6
20260507024535 16 304 1.6 20.9 0.00 0.61 0.61 80 1009.9
20260507023034 16 315 3.2 12.9 0.00 0.61 0.61 81 1010.2
20260507021532 16 287 3.2 17.7 0.00 0.61 0.61 80 1010.0
20260507020033 16 290 3.2 16.1 0.00 0.61 0.61 80 1009.7
20260507014531 16 310 3.2 14.5 0.00 0.61 0.61 81 1010.0
20260507013032 17 360 3.2 12.9 0.00 0.61 0.61 83 1009.9
20260507011532 17 298 1.6 16.1 0.00 0.61 0.61 83 1009.8
20260507010030 17 284 3.2 17.7 0.00 0.61 0.61 83 1009.9
20260507004529 18 360 4.8 17.7 0.00 0.61 0.61 83 1009.8
20260507003028 18 229 3.2 17.7 0.00 0.61 0.61 84 1009.4
20260507001526 19 195 1.6 4.8 0.00 0.61 0.61 83 1009.3
20260507000028 19 195 1.6 4.8 0.00 0.61 0.61 82 1008.9
20260506234527 19 195 1.6 4.8 0.00 0.61 0.61 81 1008.7
20260506233027 20 161 0.0 6.4 0.00 0.61 0.61 81 1008.3
20260506231526 20 202 1.6 8.0 0.00 0.61 0.61 81 1008.5
20260506230024 20 144 0.0 6.4 0.00 0.61 0.61 80 1008.1
20260506224524 20 213 0.0 11.3 0.00 0.61 0.61 80 1008.2
20260506223024 20 192 3.2 12.9 0.00 0.61 0.61 79 1008.1
20260506221524 20 192 3.2 11.3 0.00 0.61 0.61 78 1008.2
20260506220029 20 153 3.2 12.9 0.00 0.61 0.61 78 1008.2
20260506214522 20 113 4.8 24.1 0.00 0.61 0.61 79 1008.2
20260506213021 20 259 3.2 16.1 0.00 0.61 0.61 78 1008.2
20260506211520 20 193 3.2 11.3 0.00 0.61 0.61 78 1007.8
20260506210021 21 178 6.4 12.9 0.00 0.61 0.61 76 1007.6
20260506204524 21 258 8.0 16.1 0.00 0.61 0.61 76 1007.4
20260506203018 21 180 6.4 27.4 0.00 0.61 0.61 76 1007.5
20260506201523 20 181 4.8 17.7 0.00 0.61 0.61 78 1007.6
20260506200024 20 132 8.0 17.7 0.00 0.61 0.61 76 1007.6
20260506194514 20 215 6.4 17.7 0.00 0.61 0.61 77 1007.7
20260506193016 20 305 8.0 20.9 0.00 0.61 0.61 76 1007.8
20260506191512 20 239 6.4 16.1 0.00 0.61 0.61 76 1007.8
20260506190012 20 180 6.4 24.1 0.00 0.61 0.61 78 1007.9
20260506184510 20 197 11.3 20.9 0.00 0.61 0.61 78 1008.1
20260506183008 18 180 6.4 19.3 0.00 0.61 0.61 80 1008.3
20260506181506 18 204 9.7 29.0 0.00 0.61 0.61 80 1008.2
20260506180006 18 184 9.7 27.4 0.00 0.61 0.61 80 1008.3
20260506174503 18 192 8.0 27.4 0.00 0.61 0.61 82 1008.5
20260506173002 18 298 6.4 29.0 0.00 0.61 0.61 84 1008.6
20260506171601 18 203 9.7 24.1 0.00 0.61 0.61 83 1008.5
20260506170100 17 283 11.3 30.6 0.00 0.61 0.61 85 1008.6
20260506164559 17 184 8.0 29.0 0.00 0.61 0.61 86 1008.6
20260506163109 16 217 14.5 25.7 0.00 0.61 0.61 88 1008.7
20260506161600 16 217 12.9 30.6 0.00 0.61 0.61 88 1008.9
20260506160056 16 134 8.0 22.5 0.00 0.61 0.61 89 1008.8